Location: Atherton
(17.2661°S, 145.4859°E)
Time: 02:01:24
(UTC+10:00)

Courier 1B Rocket - All Passes

Search period start: 24 June 2025 00:00
Search period end: 04 July 2025 00:00
Orbit: 920 x 1201 km, 28.2° (Epoch: 22 June)

Date Brightness Start Highest point End Pass type
(mag) Time Alt. Az. Time Alt. Az. Time Alt. Az.
24 Jun - 04:47:31 10° N 04:50:59 15° NNE 04:54:26 10° ENE visible
24 Jun - 06:38:00 10° NW 06:44:07 59° NNE 06:50:26 10° ESE daylight
24 Jun - 08:31:29 10° W 08:37:38 52° SSW 08:44:09 10° ESE daylight
24 Jun - 10:26:03 10° WSW 10:31:56 33° S 10:38:12 10° ESE daylight
24 Jun - 12:20:03 10° WSW 12:26:32 39° SSE 12:33:25 10° E daylight
24 Jun - 14:13:24 10° WSW 14:20:43 79° SSE 14:28:28 10° ENE daylight
24 Jun - 16:07:32 10° W 16:14:27 39° NNW 16:21:36 10° NE daylight
24 Jun - 18:06:46 10° NW 18:08:12 11° NNW 18:09:38 10° NNW daylight
25 Jun - 05:37:17 10° NW 05:43:01 38° NNE 05:48:49 10° E visible
25 Jun - 07:30:05 10° WNW 07:36:18 68° SSW 07:42:48 10° ESE daylight
25 Jun - 09:24:31 10° WSW 09:30:20 35° S 09:36:30 10° ESE daylight
25 Jun - 11:18:48 10° WSW 11:24:53 34° S 11:31:20 10° ESE daylight
25 Jun - 13:12:12 10° WSW 13:19:12 60° SSE 13:26:40 10° E daylight
25 Jun - 15:05:49 10° WSW 15:13:01 55° NNW 15:20:35 10° NE daylight
25 Jun - 17:01:58 10° WNW 17:06:41 17° NNW 17:11:29 10° N daylight
26 Jun - 04:36:53 10° NNW 04:41:54 25° NNE 04:46:54 10° E visible
26 Jun - 06:28:50 10° WNW 06:35:05 87° NNE 06:41:30 10° ESE daylight
26 Jun - 08:22:57 10° W 08:28:50 40° SSW 08:35:01 10° SE daylight
26 Jun - 10:17:29 10° WSW 10:23:14 32° S 10:29:21 10° ESE daylight
26 Jun - 12:11:05 10° WSW 12:17:39 47° SSE 12:24:41 10° E daylight
26 Jun - 14:04:24 10° WSW 14:11:35 77° NNW 14:19:14 10° ENE daylight
26 Jun - 15:59:14 10° W 16:05:14 26° NNW 16:11:26 10° NNE daylight
27 Jun - 03:37:02 10° N 03:40:45 16° NNE 03:44:25 10° ENE visible
27 Jun - 05:27:46 10° NW 05:33:57 60° NNE 05:40:07 10° ESE visible
27 Jun - 07:21:23 10° W 07:27:26 50° SSW 07:33:40 10° ESE daylight
27 Jun - 09:16:02 10° WSW 09:21:38 31° S 09:27:32 10° ESE daylight
27 Jun - 11:09:57 10° SW 11:16:06 38° SSE 11:22:39 10° E daylight
27 Jun - 13:03:10 10° WSW 13:10:10 80° SSE 13:17:40 10° ENE daylight
27 Jun - 14:57:12 10° W 15:03:49 37° NNW 15:10:46 10° NE daylight
28 Jun - 04:26:56 10° NW 04:32:50 40° NNE 04:38:36 10° E visible
28 Jun - 06:19:55 10° WNW 06:26:09 67° SSW 06:32:26 10° ESE visible
28 Jun - 08:14:28 10° WSW 08:20:06 34° S 08:25:57 10° SE daylight
28 Jun - 10:08:46 10° SW 10:14:32 33° S 10:20:38 10° ESE daylight
28 Jun - 12:02:04 10° WSW 12:08:43 60° SSE 12:15:53 10° E daylight
28 Jun - 13:55:35 10° WSW 14:02:26 53° NNW 14:09:44 10° NE daylight
28 Jun - 15:51:42 10° WNW 15:56:04 16° NNW 16:00:33 10° N daylight
29 Jun - 03:26:24 10° NNW 03:31:41 26° NNE 03:36:49 10° E visible
29 Jun - 05:18:34 10° WNW 05:24:56 88° NNE 05:31:13 10° ESE visible
29 Jun - 07:12:50 10° W 07:18:38 39° SSW 07:24:34 10° SE daylight
29 Jun - 09:07:27 10° WSW 09:12:58 30° S 09:18:44 10° ESE daylight
29 Jun - 11:01:00 10° WSW 11:07:16 46° SSE 11:13:58 10° E daylight
29 Jun - 12:54:13 10° WSW 13:01:04 75° NNW 13:08:26 10° ENE daylight
29 Jun - 14:49:00 10° W 14:54:38 25° NNW 15:00:32 10° NNE daylight
30 Jun - 02:26:21 10° N 02:30:29 17° NNE 02:34:30 10° ENE visible
30 Jun - 04:17:24 10° NW 04:23:46 62° NNE 04:29:57 10° ESE visible
30 Jun - 06:11:12 10° W 06:17:16 49° SSW 06:23:21 10° ESE visible
30 Jun - 08:05:58 10° WSW 08:11:25 30° S 08:17:02 10° ESE daylight
30 Jun - 09:59:54 10° SW 10:05:47 37° SSE 10:12:00 10° ESE daylight
30 Jun - 11:53:03 10° WSW 11:59:43 80° SSE 12:06:54 10° ENE daylight
30 Jun - 13:47:02 10° W 13:53:17 35° NNW 13:59:55 10° NE daylight
01 Jul - 01:27:54 10° NNE 01:29:11 11° NNE 01:30:27 10° NE night (unlit)
01 Jul - 03:16:27 10° NW 03:22:37 41° NNE 03:28:31 10° E visible
01 Jul - 05:09:37 10° WNW 05:15:59 66° SSW 05:22:12 10° ESE visible
01 Jul - 07:04:20 10° WSW 07:09:55 33° S 07:15:34 10° SE daylight
01 Jul - 08:58:42 10° SW 09:04:17 32° S 09:10:05 10° ESE daylight
01 Jul - 10:51:59 10° WSW 10:58:22 59° SSE 11:05:11 10° E daylight
01 Jul - 12:45:27 10° WSW 12:51:57 51° NNW 12:58:55 10° NE daylight
01 Jul - 14:41:39 10° WNW 14:45:32 15° NNW 14:49:31 10° N daylight
02 Jul - 02:15:46 10° NNW 02:21:26 28° NNE 02:26:49 10° E night (unlit)
02 Jul - 04:08:10 10° WNW 04:14:45 90° NE 04:21:04 10° ESE visible
02 Jul - 06:02:36 10° W 06:08:29 38° SSW 06:14:17 10° SE visible
02 Jul - 07:57:21 10° WSW 08:02:46 30° S 08:08:17 10° ESE daylight
02 Jul - 09:50:56 10° SW 09:56:59 45° SSE 10:03:21 10° E daylight
02 Jul - 11:44:08 10° WSW 11:50:39 73° NNW 11:57:41 10° ENE daylight
02 Jul - 13:38:56 10° W 13:44:08 23° NNW 13:49:37 10° NNE daylight
03 Jul - 01:15:31 10° NNW 01:20:09 19° NNE 01:24:36 10° ENE night (unlit)
03 Jul - 03:06:53 10° NW 03:13:33 64° NNE 03:19:51 10° ESE visible
03 Jul - 05:00:52 10° W 05:07:06 49° SSW 05:13:09 10° ESE visible
03 Jul - 06:55:47 10° WSW 07:01:15 30° S 07:06:42 10° ESE daylight
03 Jul - 08:49:49 10° SW 08:55:34 36° SSE 09:01:30 10° ESE daylight
03 Jul - 10:42:59 10° WSW 10:49:23 81° SSE 10:56:13 10° ENE daylight
03 Jul - 12:36:57 10° W 12:42:50 33° NNW 12:49:05 10° NNE daylight
